Flag for Hungary Weather past 2 weeks in Sopron, Hungary

Now
57 °F

Cool.


Feels Like: 55 °F
Forecast: 38 / 62 °F
Wind: 7 mph from Northwest

Location: Eisenstadt

Current Time: Sep 23, 2014 at 6:43:24 PM

Latest Report: Sep 23, 2014 at 6:00 PM


Visibility: N/A

Pressure: 30.05 "Hg

Humidity: 65%

Dew point: 45 °F

Location of SopronLocation

Historic Weather in Sopron — Graph

°F

Sopron temperature yesterday

Maximum temperature yesterday: 65 °F (at 1:00 AM)
Minimum temperature yesterday: 51 °F (at 9:00 PM)
Average temperature yesterday: 58 °F

Past Weeks' High & Low Weather Summary

 TemperatureHumidityPressure
High78 °F (Sep 9, 2:00 PM)99% (Sep 9, 9:00 AM)30.09 "Hg (Sep 9, 9:00 AM)
Low48 °F (Sep 23, 3:00 AM)49% (Sep 21, 2:00 PM)29.77 "Hg (Sep 12, 5:00 AM)
Average61 °F82%29.97 "Hg
* Reported Sep 8 5:00 PM — Sep 23 5:00 PM, Sopron, Weather by CustomWeather, © 2014

Note: Actual official high and low records may vary slightly from our data, if they occured in-between our weather recording intervals... More about our weather records

Advertising

Sopron weather history for previous 24 hours

 ConditionsComfort  
Time TempWeatherWind HumidityBarometerVisibility
5:00 PM
Sep 23
56 °FPassing clouds.7 mph68%30.04 "Hg12 mi
4:00 PM56 °FCool.5 mph73%30.05 "HgN/A
3:00 PM56 °FSprinkles. Cloudy.6 mph78%30.06 "HgN/A
2:00 PM58 °FOvercast.7 mph60%30.05 "Hg12 mi
1:00 PM58 °FCool.8 mph62%30.04 "HgN/A
12:00 PM57 °FCool.9 mph64%30.04 "HgN/A
11:00 AM56 °FOvercast.8 mph64%30.03 "Hg12 mi
10:00 AM54 °FCool.10 mph69%30.01 "HgN/A
9:00 AM53 °FCool.9 mph72%29.98 "HgN/A
8:00 AM52 °FOvercast.8 mph74%29.96 "Hg6 mi
7:00 AM51 °FOvercast.7 mph74%29.94 "Hg6 mi
6:00 AM50 °FPassing clouds.5 mph76%29.93 "Hg6 mi
5:00 AM49 °FPassing clouds.6 mph76%29.93 "Hg6 mi
4:00 AM49 °FPassing clouds.5 mph78%29.93 "Hg6 mi
3:00 AM48 °FCool.3 mph79%29.95 "HgN/A
2:00 AM49 °FClear.5 mph79%29.95 "Hg6 mi
1:00 AM49 °FCool.5 mph80%29.95 "HgN/A
12:00 AM50 °FCool.5 mph78%29.95 "HgN/A
11:00 PM
Sep 22
51 °FOvercast.6 mph76%29.94 "Hg6 mi
10:00 PM51 °FCool.3 mph79%29.93 "HgN/A
9:00 PM51 °FCool.5 mph84%29.92 "HgN/A
8:00 PM51 °FOvercast.3 mph87%29.91 "Hg6 mi
7:00 PM51 °FOvercast.3 mph85%29.90 "Hg9 mi
6:00 PM56 °FCool.2 mph81%29.87 "HgN/A
Weather by CustomWeather, © 2014

See weather overviewHow to use our weather pages